Weather in Agapovka

Russia / Chelyabinsk Oblast     53°18′10″N   59°08′26″E
temp.,
°C
wind,
m/s
gust,
m/s
humid.,
%
clouds,
%
prec.,
mm/h
press.,
hPa
HPBL,
m
18 october, mon
mon1823:00+9ssw335295 0.0 102128
02:00+8ssw3354100 0.0 102135
05:00+8ssw3753100 0.0 1020150
08:00+7s3757100 0.0 1019126
11:00+11ssw51140100 0.0 1018479
14:00+14ssw71032100 0.0 1017873
17:00+13ssw61035100 0.0 1016518
20:00+10s41143100 0.0 1016246
19 october, tue
tue1923:00+9s31143100 0.0 1016255
02:00+8s394395 0.0 1015194
05:00+7s3942100 0.0 1014182
08:00+7s3842100 0.0 1013172
11:00+10ssw4733100 0.0 1012363
14:00+12sw7114482 0.0 10111377
17:00+11sw594889 0.0 10101110
20:00+10s115198 0.0 101015
20 october, wed
wed2023:00+10sse2241100 0.0 100932
02:00+9sse2340100 0.0 100859
05:00+9se234998 0.1 100776
08:00+7ssw115496 0.0 100711
11:00+9sse2244100 0.0 1006212
14:00+10ne1142100 0.0 1004343
17:00+8e2367100 0.8 1004360
20:00+7nne5774100 0.3 1002493
21 october, thu
thu2123:00+5nne61089100 3.9 999545
02:00+5ne6890100 1.7 997867
05:00+3nne71195100 3.3 998551
08:00+1n81595100 1.8 1000735
11:00+1n81496100 3.7 1002768
14:00+1nnw81597100 3.4 1004789
17:00+1nnw8149691 5.1 1006811
20:00+1nnw7127893 0.2 1009597
22 october, fri
fri2223:00+1nw498297 0.2 1010420
02:00−1w2489100 0.0 101197
05:00−1wsw3585100 0.0 1012129
08:00−1wsw4971100 0.0 1012274
11:000sw61092100 0.3 1011407
14:00+1ssw61294100 0.7 1008500
17:00+3sw61591100 2.4 1007629
20:00+4wsw81790100 0.0 1007708